| time (UTC) | temp C | wind direction | speed KPH | gust KPH | rain 1hr cm | rain 24hr cm | rain mn cm | humidity % | barometer mb |
| 20260905164903 | 24 | 20 | 3.2 | 4.8 | 0.00 | 8.94 | 0.00 | 45 | 1021.1 |
| 20260905164405 | 24 | 118 | 1.6 | 4.8 | 0.00 | 8.94 | 0.00 | 45 | 1021.2 |
| 20260905163413 | 25 | 47 | 3.2 | 4.8 | 0.00 | 8.94 | 0.00 | 45 | 1021.0 |
| 20260905161409 | 25 | 49 | 1.6 | 3.2 | 0.33 | 8.94 | 0.00 | 46 | 1020.9 |
| 20260905160913 | 25 | 110 | 3.2 | 4.8 | 0.33 | 8.94 | 0.00 | 47 | 1020.8 |
| 20260905154357 | 24 | 15 | 3.2 | 6.4 | 0.86 | 8.94 | 0.00 | 48 | 1020.6 |
| 20260905153855 | 24 | 58 | 4.8 | 9.7 | 0.86 | 8.94 | 0.00 | 48 | 1020.7 |
| 20260905153353 | 24 | 94 | 4.8 | 8.0 | 0.86 | 8.94 | 0.00 | 48 | 1020.6 |
| 20260905152857 | 24 | 77 | 3.2 | 9.7 | 0.86 | 8.94 | 0.00 | 49 | 1020.6 |
| 20260905152349 | 24 | 17 | 3.2 | 6.4 | 0.86 | 8.94 | 0.00 | 49 | 1020.9 |
| 20260905150348 | 25 | 64 | 3.2 | 6.4 | 0.53 | 8.92 | 0.00 | 50 | 1020.5 |
| 20260905144842 | 25 | 102 | 3.2 | 6.4 | 0.00 | 8.86 | 0.00 | 52 | 1020.5 |
| 20260905144343 | 25 | 128 | 1.6 | 6.4 | 0.00 | 8.86 | 0.00 | 53 | 1020.5 |
| 20260905143339 | 23 | 96 | 3.2 | 9.7 | 0.00 | 8.86 | 0.00 | 54 | 1020.4 |
| 20260905140357 | 22 | 120 | 1.6 | 4.8 | 0.00 | 8.86 | 0.00 | 54 | 1020.4 |
| 20260905130445 | 21 | 51 | 3.2 | 8.0 | 0.00 | 8.86 | 0.00 | 55 | 1020.9 |
| 20260905123454 | 21 | 69 | 3.2 | 4.8 | 5.41 | 8.86 | 0.00 | 58 | 1021.0 |
| 20260905120456 | 20 | 124 | 1.6 | 4.8 | 5.41 | 8.86 | 0.00 | 61 | 1021.4 |
| 20260905113507 | 20 | 90 | 1.6 | 4.8 | 0.00 | 8.33 | 0.00 | 62 | 1021.1 |
| 20260905113005 | 19 | 119 | 1.6 | 6.4 | 2.64 | 8.33 | 0.00 | 62 | 1021.1 |
| 20260905111506 | 19 | 65 | 3.2 | 6.4 | 2.64 | 8.33 | 0.00 | 63 | 1021.2 |
| 20260905104501 | 19 | 338 | 1.6 | 4.8 | 2.64 | 8.33 | 0.00 | 65 | 1021.0 |
| 20260905104006 | 19 | 89 | 1.6 | 6.4 | 2.64 | 8.33 | 0.00 | 65 | 1021.0 |
| 20260905103457 | 19 | 94 | 1.6 | 4.8 | 2.64 | 8.33 | 0.00 | 65 | 1020.8 |
| 20260905102937 | 19 | 117 | 1.6 | 3.2 | 0.00 | 5.66 | 0.00 | 66 | 1020.8 |
| 20260905100443 | 18 | 34 | 1.6 | 4.8 | 0.00 | 5.66 | 0.00 | 66 | 1020.8 |
| 20260905095944 | 18 | 69 | 1.6 | 6.4 | 0.00 | 5.66 | 0.00 | 66 | 1021.0 |
| 20260905095445 | 18 | 56 | 3.2 | 4.8 | 0.00 | 5.66 | 0.00 | 66 | 1021.4 |
| 20260905094448 | 18 | 88 | 3.2 | 6.4 | 0.00 | 5.66 | 0.00 | 67 | 1021.2 |
| 20260905093450 | 18 | 136 | 1.6 | 1.6 | 0.00 | 5.66 | 0.00 | 67 | 1020.9 |
| 20260905092951 | 18 | 78 | 1.6 | 4.8 | 0.00 | 5.66 | 0.00 | 68 | 1021.2 |
| 20260905091455 | 17 | 47 | 1.6 | 4.8 | 0.00 | 5.66 | 0.00 | 68 | 1021.1 |
| 20260905090950 | 17 | 86 | 3.2 | 8.0 | 0.00 | 5.66 | 0.00 | 68 | 1021.4 |
| 20260905090451 | 17 | 160 | 1.6 | 9.7 | 0.00 | 5.66 | 0.00 | 68 | 1021.3 |
| 20260905085952 | 17 | 131 | 1.6 | 6.4 | 0.00 | 5.66 | 0.00 | 68 | 1021.2 |
| 20260905085453 | 17 | 138 | 1.6 | 4.8 | 0.00 | 5.66 | 0.00 | 68 | 1021.3 |
| 20260905084954 | 17 | 55 | 3.2 | 4.8 | 0.00 | 5.66 | 0.00 | 68 | 1021.3 |
| 20260905084456 | 17 | 54 | 1.6 | 4.8 | 0.00 | 5.66 | 0.00 | 68 | 1021.0 |
| 20260905084003 | 17 | 110 | 1.6 | 4.8 | 0.00 | 5.66 | 0.00 | 68 | 1020.9 |
| 20260905083504 | 17 | 41 | 1.6 | 4.8 | 0.00 | 5.66 | 0.00 | 68 | 1021.0 |
| 20260905083006 | 16 | 47 | 1.6 | 4.8 | 0.00 | 5.66 | 0.00 | 68 | 1021.1 |
| 20260905082507 | 16 | 86 | 1.6 | 4.8 | 0.00 | 5.66 | 0.00 | 68 | 1021.0 |
| 20260905081509 | 16 | 56 | 3.2 | 4.8 | 0.00 | 5.66 | 0.00 | 68 | 1020.9 |
| 20260905081004 | 16 | 39 | 3.2 | 6.4 | 0.00 | 5.66 | 0.00 | 67 | 1020.8 |
| 20260905080505 | 16 | 55 | 3.2 | 8.0 | 0.00 | 5.66 | 0.00 | 68 | 1020.7 |
| 20260905075015 | 16 | 121 | 0.0 | 1.6 | 0.00 | 5.66 | 0.00 | 68 | 1020.5 |
| 20260905072521 | 15 | 94 | 0.0 | 1.6 | 0.00 | 5.66 | 0.00 | 67 | 1020.4 |
| 20260905071524 | 15 | 114 | 0.0 | 1.6 | 0.00 | 5.66 | 0.00 | 67 | 1020.5 |
| 20260905071022 | 15 | 50 | 1.6 | 3.2 | 0.08 | 5.66 | 0.00 | 67 | 1020.4 |
| 20260905070018 | 15 | 105 | 1.6 | 1.6 | 5.66 | 5.66 | 0.00 | 67 | 1020.3 |
| 20260905065516 | 15 | 66 | 0.0 | 1.6 | 5.66 | 5.66 | 0.00 | 67 | 1020.3 |
| 20260905064505 | 15 | 21 | 1.6 | 3.2 | 5.66 | 5.66 | 0.00 | 67 | 1020.3 |
| 20260905064003 | 15 | 119 | 1.6 | 3.2 | 5.66 | 5.66 | 0.00 | 67 | 1020.3 |
| 20260905063006 | 15 | 88 | 1.6 | 3.2 | 5.66 | 5.66 | 0.00 | 67 | 1020.2 |
| 20260905062504 | 15 | 91 | 1.6 | 3.2 | 5.66 | 5.66 | 0.00 | 67 | 1020.0 |
| 20260905061454 | 15 | 82 | 1.6 | 4.8 | 5.66 | 5.66 | 0.00 | 67 | 1020.0 |
| 20260905060951 | 15 | 135 | 1.6 | 4.8 | 5.64 | 5.66 | 0.00 | 67 | 1019.9 |
| 20260905060403 | 15 | 83 | 1.6 | 4.8 | 0.00 | 3.25 | 0.00 | 66 | 1019.9 |
| 20260905055905 | 15 | 116 | 1.6 | 3.2 | 0.00 | 3.25 | 0.00 | 66 | 1019.9 |
| 20260905055402 | 15 | 3 | 3.2 | 6.4 | 0.03 | 3.68 | 0.00 | 66 | 1019.9 |
| 20260905054405 | 15 | 72 | 1.6 | 3.2 | 0.03 | 3.68 | 0.00 | 66 | 1019.3 |
| 20260905053856 | 15 | 67 | 0.0 | 1.6 | 0.05 | 3.68 | 0.00 | 66 | 1019.3 |
| 20260905053401 | 15 | 4 | 1.6 | 3.2 | 0.10 | 3.68 | 0.00 | 66 | 1019.4 |
| 20260905052852 | 15 | 93 | 1.6 | 4.8 | 0.13 | 3.68 | 0.00 | 66 | 1019.5 |
| 20260905050851 | 15 | 115 | 1.6 | 3.2 | 0.13 | 3.68 | 0.00 | 64 | 1017.8 |
| 20260905045345 | 16 | 122 | 1.6 | 4.8 | 0.13 | 3.68 | 0.00 | 64 | 1019.1 |
| 20260905043838 | 16 | 117 | 1.6 | 4.8 | 0.10 | 3.68 | 0.00 | 64 | 1019.1 |
| 20260905042330 | 16 | 125 | 0.0 | 1.6 | 0.03 | 3.68 | 0.00 | 64 | 1018.7 |
| 20260905041828 | 16 | 86 | 1.6 | 3.2 | 0.03 | 3.68 | 0.00 | 64 | 1018.5 |
| 20260905040824 | 17 | 40 | 1.6 | 3.2 | 0.03 | 3.68 | 0.00 | 64 | 1018.3 |
| 20260905040322 | 17 | 107 | 1.6 | 3.2 | 0.03 | 3.68 | 0.00 | 64 | 1018.5 |
| 20260905035821 | 17 | 68 | 1.6 | 4.8 | 0.00 | 3.68 | 0.00 | 64 | 1018.7 |
| 20260905035322 | 17 | 116 | 1.6 | 3.2 | 0.00 | 3.68 | 0.00 | 64 | 1019.1 |
| 20260905033826 | 17 | 68 | 0.0 | 1.6 | 0.00 | 3.68 | 0.00 | 63 | 1018.6 |
| 20260905032323 | 17 | 27 | 0.0 | 1.6 | 0.00 | 3.68 | 0.00 | 63 | 1017.9 |
| 20260905031831 | 17 | 97 | 1.6 | 3.2 | 0.00 | 3.68 | 0.00 | 63 | 1017.8 |
| 20260905031325 | 17 | 57 | 0.0 | 1.6 | 0.00 | 3.68 | 0.00 | 63 | 1017.9 |
| 20260905030334 | 17 | 73 | 0.0 | 0.0 | 0.00 | 3.68 | 0.00 | 63 | 1017.6 |
| 20260905025835 | 17 | 96 | 1.6 | 1.6 | 0.00 | 3.68 | 0.00 | 63 | 1017.7 |
| 20260905024831 | 17 | 73 | 1.6 | 1.6 | 0.00 | 3.68 | 0.00 | 63 | 1017.8 |
| 20260905024333 | 17 | 116 | 1.6 | 1.6 | 0.00 | 3.68 | 0.00 | 63 | 1017.9 |
| 20260905023834 | 17 | 36 | 1.6 | 3.2 | 0.00 | 3.68 | 0.00 | 63 | 1017.7 |
| 20260905022836 | 17 | 116 | 1.6 | 3.2 | 0.00 | 3.68 | 0.00 | 62 | 1017.8 |
| 20260905021845 | 17 | 82 | 0.0 | 3.2 | 0.00 | 3.68 | 0.00 | 62 | 1017.9 |
| 20260905020847 | 17 | 24 | 1.6 | 4.8 | 0.00 | 3.68 | 0.00 | 62 | 1017.3 |
| 20260905015351 | 18 | 34 | 3.2 | 6.4 | 0.00 | 3.68 | 0.00 | 62 | 1017.4 |
| 20260905014852 | 18 | 28 | 1.6 | 4.8 | 0.00 | 3.68 | 0.00 | 61 | 1017.3 |
| 20260905014353 | 18 | 22 | 1.6 | 3.2 | 0.00 | 3.68 | 0.00 | 61 | 1017.0 |
| 20260905013848 | 18 | 37 | 3.2 | 4.8 | 0.00 | 3.68 | 0.00 | 61 | 1016.8 |
| 20260905011351 | 18 | 70 | 1.6 | 4.8 | 0.03 | 3.68 | 0.00 | 60 | 1017.1 |
| 20260905010849 | 18 | 342 | 1.6 | 4.8 | 0.03 | 3.68 | 0.00 | 60 | 1016.9 |
| 20260905010354 | 19 | 67 | 1.6 | 4.8 | 0.03 | 3.68 | 0.00 | 59 | 1016.8 |
| 20260905005349 | 19 | 29 | 1.6 | 4.8 | 0.03 | 3.68 | 0.00 | 59 | 1017.0 |
| 20260905004848 | 19 | 8 | 3.2 | 4.8 | 0.03 | 3.68 | 0.00 | 59 | 1017.2 |
| 20260905003844 | 20 | 73 | 1.6 | 4.8 | 0.03 | 3.68 | 0.00 | 58 | 1016.7 |
| 20260905003342 | 20 | 131 | 1.6 | 3.2 | 0.03 | 3.68 | 0.00 | 58 | 1016.6 |
| 20260905002833 | 20 | 101 | 3.2 | 4.8 | 0.03 | 3.68 | 0.00 | 58 | 1016.6 |
| 20260904235831 | 21 | 19 | 3.2 | 3.2 | 0.00 | 3.68 | 0.00 | 57 | 1015.6 |
| 20260904235338 | 21 | 73 | 4.8 | 8.0 | 0.00 | 3.68 | 0.00 | 56 | 1015.3 |
| 20260904234833 | 21 | 138 | 3.2 | 4.8 | 0.00 | 3.68 | 0.00 | 56 | 1015.2 |
| 20260904234341 | 21 | 298 | 3.2 | 4.8 | 0.00 | 3.68 | 0.00 | 56 | 1015.4 |
| 20260904233836 | 22 | 40 | 3.2 | 9.7 | 0.00 | 3.68 | 0.00 | 56 | 1015.2 |
| 20260904232845 | 22 | 27 | 3.2 | 6.4 | 0.00 | 3.68 | 0.00 | 55 | 1015.2 |
| 20260904230849 | 23 | 44 | 1.6 | 3.2 | 0.00 | 3.68 | 0.00 | 54 | 1014.1 |
| 20260904225852 | 23 | 57 | 0.0 | 1.6 | 0.00 | 3.68 | 0.00 | 53 | 1013.6 |
| 20260904225353 | 23 | 135 | 0.0 | 0.0 | 0.00 | 3.68 | 0.00 | 53 | 1013.3 |
| 20260904224854 | 23 | 135 | 0.0 | 0.0 | 0.00 | 3.68 | 0.00 | 53 | 1013.2 |
| 20260904224349 | 23 | 60 | 0.0 | 0.0 | 0.00 | 3.68 | 0.00 | 53 | 1013.2 |
| 20260904223850 | 23 | 21 | 0.0 | 1.6 | 0.00 | 3.68 | 0.00 | 53 | 1013.3 |
| 20260904223351 | 23 | 7 | 1.6 | 3.2 | 0.00 | 3.68 | 0.00 | 53 | 1013.3 |
| 20260904222853 | 23 | 336 | 1.6 | 1.6 | 0.00 | 3.68 | 0.00 | 53 | 1013.3 |
| 20260904222354 | 23 | 47 | 1.6 | 1.6 | 0.00 | 3.68 | 0.00 | 53 | 1013.3 |
| 20260904221855 | 23 | 84 | 1.6 | 3.2 | 0.00 | 3.68 | 0.00 | 53 | 1013.3 |
| 20260904221403 | 24 | 57 | 1.6 | 4.8 | 0.00 | 3.68 | 0.00 | 53 | 1013.4 |
| 20260904220359 | 23 | 41 | 0.0 | 1.6 | 0.00 | 3.68 | 0.00 | 53 | 1013.1 |
| 20260904215401 | 24 | 114 | 0.0 | 1.6 | 0.00 | 3.68 | 0.00 | 53 | 1013.0 |
| 20260904214403 | 24 | 122 | 0.0 | 1.6 | 0.00 | 3.68 | 0.00 | 53 | 1012.8 |
| 20260904213406 | 24 | 103 | 0.0 | 1.6 | 0.00 | 3.68 | 0.00 | 53 | 1012.7 |
| 20260904212913 | 24 | 145 | 0.0 | 0.0 | 0.00 | 3.68 | 0.00 | 53 | 1012.7 |
| 20260904212415 | 24 | 120 | 0.0 | 0.0 | 0.00 | 3.68 | 0.00 | 53 | 1012.6 |
| 20260904210918 | 24 | 89 | 0.0 | 0.0 | 0.00 | 3.68 | 0.00 | 53 | 1012.6 |
| 20260904210419 | 24 | 59 | 0.0 | 0.0 | 0.00 | 3.68 | 0.00 | 53 | 1012.7 |
| 20260904203919 | 25 | 169 | 0.0 | 0.0 | 0.00 | 3.68 | 0.00 | 53 | 1012.9 |
| 20260904203420 | 25 | 155 | 0.0 | 0.0 | 0.00 | 3.68 | 0.00 | 53 | 1012.9 |
| 20260904202921 | 25 | 135 | 0.0 | 0.0 | 0.00 | 3.68 | 0.00 | 53 | 1013.0 |
| 20260904202422 | 25 | 137 | 0.0 | 1.6 | 0.00 | 3.68 | 0.00 | 53 | 1013.0 |
| 20260904201425 | 25 | 40 | 0.0 | 0.0 | 0.00 | 3.68 | 0.00 | 53 | 1013.0 |
| 20260904200933 | 25 | 92 | 0.0 | 0.0 | 0.00 | 3.68 | 0.00 | 53 | 1013.1 |
| 20260904200434 | 25 | 137 | 0.0 | 0.0 | 0.00 | 3.68 | 0.00 | 53 | 1013.1 |
| 20260904195436 | 25 | 160 | 0.0 | 1.6 | 0.00 | 3.68 | 0.00 | 52 | 1013.1 |
| 20260904194432 | 25 | 126 | 0.0 | 3.2 | 0.00 | 3.68 | 0.00 | 52 | 1013.2 |
| 20260904193435 | 25 | 99 | 0.0 | 0.0 | 0.00 | 3.68 | 0.00 | 52 | 1013.2 |
| 20260904192942 | 25 | 101 | 0.0 | 1.6 | 0.00 | 3.68 | 0.00 | 52 | 1013.2 |
| 20260904191938 | 26 | 107 | 0.0 | 1.6 | 0.00 | 3.68 | 0.00 | 52 | 1013.3 |
| 20260904191446 | 26 | 129 | 0.0 | 0.0 | 0.00 | 3.68 | 0.00 | 52 | 1013.3 |
| 20260904190947 | 26 | 96 | 0.0 | 1.6 | 0.00 | 3.68 | 0.00 | 52 | 1013.3 |
| 20260904190448 | 26 | 23 | 0.0 | 1.6 | 0.00 | 3.68 | 0.00 | 52 | 1013.2 |
| 20260904185451 | 26 | 105 | 0.0 | 1.6 | 0.00 | 3.68 | 0.00 | 52 | 1013.3 |
| 20260904184952 | 26 | 89 | 0.0 | 0.0 | 0.00 | 3.68 | 0.00 | 52 | 1013.3 |
| 20260904184453 | 26 | 81 | 0.0 | 0.0 | 0.00 | 3.68 | 0.00 | 52 | 1013.3 |
| 20260904183455 | 26 | 93 | 0.0 | 0.0 | 0.00 | 3.68 | 0.00 | 52 | 1013.5 |
| 20260904182956 | 27 | 162 | 0.0 | 0.0 | 0.00 | 3.68 | 0.00 | 52 | 1013.4 |
| 20260904182451 | 27 | 118 | 0.0 | 0.0 | 0.00 | 3.68 | 0.00 | 52 | 1013.4 |
| 20260904181454 | 27 | 141 | 0.0 | 0.0 | 0.00 | 3.68 | 0.00 | 52 | 1013.6 |
| 20260904180955 | 27 | 131 | 0.0 | 0.0 | 0.00 | 3.68 | 0.00 | 51 | 1013.5 |
| 20260904180004 | 27 | 57 | 0.0 | 0.0 | 0.00 | 3.68 | 0.00 | 51 | 1013.5 |
| 20260904175505 | 27 | 68 | 0.0 | 0.0 | 0.00 | 3.68 | 0.00 | 51 | 1013.5 |
| 20260904175000 | 28 | 129 | 0.0 | 0.0 | 0.00 | 3.68 | 0.00 | 51 | 1013.5 |
| 20260904174501 | 28 | 111 | 0.0 | 1.6 | 0.00 | 3.68 | 0.00 | 51 | 1013.5 |
| 20260904174002 | 28 | 170 | 0.0 | 1.6 | 0.00 | 3.68 | 0.00 | 51 | 1013.5 |
| 20260904173503 | 28 | 129 | 0.0 | 1.6 | 0.00 | 3.68 | 0.00 | 50 | 1013.5 |
| 20260904173005 | 28 | 51 | 0.0 | 1.6 | 0.00 | 3.68 | 0.00 | 50 | 1013.5 |
| 20260904172512 | 29 | 111 | 0.0 | 3.2 | 0.00 | 3.68 | 0.00 | 50 | 1013.5 |
| 20260904171508 | 30 | 96 | 1.6 | 3.2 | 0.00 | 3.68 | 0.00 | 50 | 1013.4 |
| 20260904171016 | 30 | 110 | 0.0 | 0.0 | 0.00 | 3.68 | 0.00 | 50 | 1013.3 |